This is the latest recevied weather packets stored in our database for station/object KE8DDT-7. If no packets are shown the sender has not sent any weather packets the latest 10 day(s).
| Time | Temp. | Humidity | Pressure | Rain* | Wind** | Luminosity | Snow |
|---|---|---|---|---|---|---|---|
| 1777999840 | 9.44° C | 85% | 998.9 hPa | 1.02 mm | - | 330 W/m² | - |
| 1777999539 | 9.44° C | 85% | 999.1 hPa | 1.27 mm | - | 352 W/m² | - |
| 1777998939 | 8.89° C | 84% | 999.2 hPa | 1.27 mm | - | 216 W/m² | - |
| 1777998639 | 8.89° C | 83% | 999.2 hPa | 1.27 mm | - | 100 W/m² | - |
| 1777998339 | 8.89° C | 83% | 999.4 hPa | 1.27 mm | - | 118 W/m² | - |
| 1777998039 | 8.89° C | 82% | 999.4 hPa | 1.02 mm | - | 120 W/m² | - |
| 1777997739 | 8.89° C | 82% | 999.4 hPa | 1.02 mm | - | 93 W/m² | - |
| 1777997439 | 9.44° C | 81% | 999.7 hPa | 0.76 mm | - | 104 W/m² | - |
| 1777997139 | 9.44° C | 80% | 999.6 hPa | 0.76 mm | - | 113 W/m² | - |
| 1777996839 | 9.44° C | 79% | 999.7 hPa | 0.51 mm | - | 81 W/m² | - |
| 1777996539 | 10° C | 78% | 999.7 hPa | 0.25 mm | - | 77 W/m² | - |
| 1777996239 | 10° C | 76% | 999.5 hPa | 0.25 mm | - | 69 W/m² | - |
| 1777995939 | 10.56° C | 75% | 999.5 hPa | 0 mm | - | 90 W/m² | - |
| 1777995339 | 11.11° C | 71% | 999.4 hPa | 0 mm | - | 83 W/m² | - |
| 1777995039 | 11.11° C | 70% | 999.3 hPa | 0 mm | - | 95 W/m² | - |
| 1777994739 | 11.11° C | 69% | 999.2 hPa | 0 mm | - | 91 W/m² | - |
| 1777994439 | 11.67° C | 67% | 999.1 hPa | 0 mm | - | 114 W/m² | - |
| 1777994139 | 11.67° C | 65% | 999 hPa | 0 mm | - | 142 W/m² | - |
| 1777993539 | 11.67° C | 65% | 998.7 hPa | 0 mm | - | 72 W/m² | - |
| 1777993240 | 12.22° C | 63% | 998.5 hPa | 0 mm | - | 70 W/m² | - |
| 1777992939 | 12.22° C | 63% | 998.5 hPa | 0 mm | - | 72 W/m² | - |
| 1777992640 | 12.22° C | 62% | 998.5 hPa | 0 mm | - | 91 W/m² | - |
| 1777992338 | 12.22° C | 63% | 998.4 hPa | 0 mm | - | 121 W/m² | - |
| 1777992039 | 12.22° C | 63% | 998.2 hPa | 0 mm | - | 109 W/m² | - |
| 1777991739 | 12.22° C | 63% | 998.3 hPa | 0 mm | - | 102 W/m² | - |
* Rain latest hour (hover to see other rain measurements)
** Current wind speed in m/s (hover to see current wind gust speed)